Wind_Speed
4 4 9 20 13 9 2 6 11 8 9 4 20 22 18 25 26 36 38 36 45 47 50 45 40 38 36 32 30 31 34 36 40 42 44 47 47 47 47 46 44 43 42 41
4 7 17 2 2 6 5 11 18 14 14 5 13 21 17 20 25 32 39 41 36 43 45 45 41 33 30 27 25 23 27 34 39 43 45 46 44 46 47 46 46 46 45 43
11 10 4 6 3 8 4 7 17 14 7 5 10 14 8 9 13 27 37 44 36 39 40 33 36 35 27 23 22 22 24 29 36 41 44 45 45 46 48 49 49 48 46 45
6 4 6 3 7 9 15 11 13 11 6 7 5 15 7 8 10 8 27 25 29 23 26 30 34 32 33 25 17 20 25 32 35 37 40 45 48 49 49 48 47 48 48 48
7 3 2 4 9 8 11 4 7 3 4 5 1 3 2 4 6 11 9 11 15 21 20 25 28 33 29 25 21 21 23 28 33 37 38 41 44 47 46 45 46 47 48 48
7 2 6 8 7 9 2 2 4 4 2 6 9 8 20 3 4 3 9 30 22 19 27 28 30 33 27 18 19 22 22 24 29 33 36 38 42 45 45 44 42 46 48 48
2 5 4 5 3 1 3 4 3 3 1 9 3 3 15 9 15 8 10 19 8 18 29 37 38 36 30 19 16 19 21 22 23 26 30 34 37 39 41 40 41 42 45 48
5 16 6 5 9 9 8 9 6 7 5 12 4 7 18 5 9 27 20 16 5 20 27 36 38 36 29 21 14 13 14 15 19 21 26 29 33 38 39 40 40 41 41 42
4 11 3 6 4 4 4 5 3 2 2 2 12 14 14 14 6 4 2 4 13 22 23 30 31 34 24 20 14 11 9 10 13 17 23 25 27 34 39 38 38 39 39 40
4 11 5 3 4 5 7 3 2 1 3 6 7 13 12 22 24 7 8 13 32 34 30 27 26 21 21 23 24 20 16 17 18 18 20 24 28 31 34 37 40 39 39 41
2 3 7 0 7 12 2 4 3 2 5 10 16 12 10 21 22 8 10 27 28 30 30 29 25 20 19 20 20 22 21 23 28 29 29 29 31 35 37 39 40 41 42 42
9 5 12 25 6 4 5 11 9 11 9 10 13 12 14 16 22 25 25 27 30 29 32 30 26 27 27 25 26 29 27 22 20 23 27 29 34 37 40 44 45 45 46 45
4 4 2 4 5 4 1 2 4 10 6 13 12 7 8 12 18 27 27 30 30 32 32 32 33 33 33 33 34 33 32 35 32 27 24 24 25 30 37 42 47 50 50 49
5 5 10 14 13 7 11 10 12 13 9 14 14 21 17 13 13 19 19 25 31 33 33 34 38 35 35 38 38 39 38 36 39 38 37 33 29 29 31 32 41 48 50 53
2 12 15 18 11 7 8 13 18 18 17 12 19 20 8 10 13 18 14 20 22 29 32 33 37 37 39 40 43 42 41 40 40 41 39 42 36 32 30 34 36 42 48 50
2 3 5 13 19 14 19 18 19 21 20 16 18 11 4 5 9 12 13 13 23 25 23 24 32 33 40 40 41 44 46 42 41 41 43 39 39 35 32 30 33 37 43 47
2 3 6 18 12 8 12 21 20 18 19 3 10 2 1 4 8 15 17 10 19 19 23 23 31 32 35 36 38 39 41 45 40 39 41 42 40 37 37 32 30 34 39 42
9 11 5 12 9 19 7 5 8 9 6 6 5 3 6 8 11 17 3 17 20 21 20 27 29 32 34 35 36 39 40 41 43 41 42 43 42 39 39 38 32 31 35 40
16 11 4 4 7 8 8 3 2 1 5 5 4 6 10 14 12 2 13 21 28 30 25 30 31 31 33 35 35 39 41 42 43 45 44 44 45 44 38 37 36 30 30 37
2 12 8 2 4 6 2 2 3 3 4 8 8 7 8 7 5 9 26 29 30 29 31 34 34 33 34 34 37 41 42 44 46 47 46 48 44 41 41 36 34 32 28 31
3 3 6 6 4 7 4 6 2 5 5 11 6 14 17 5 9 26 35 33 30 31 35 36 37 39 40 39 41 43 46 49 50 51 52 48 48 43 39 36 34 32 29 24
5 4 4 2 3 7 5 3 4 6 20 21 19 25 22 23 26 31 32 35 35 35 38 37 39 41 42 44 46 48 49 50 52 55 55 56 50 49 44 37 34 33 28 27
2 6 4 7 6 5 11 16 30 22 22 26 22 23 25 25 31 31 33 37 38 40 42 41 44 47 49 50 51 53 57 55 55 55 60 58 56 52 50 41 36 35 33 29
5 7 10 14 14 17 30 36 28 35 34 36 28 24 22 26 29 31 34 38 43 46 46 46 47 52 56 56 58 60 60 59 58 60 59 62 58 54 48 48 39 36 36 37
9 5 5 12 18 21 28 35 33 28 27 25 23 24 25 23 31 30 37 44 45 47 51 49 48 52 60 61 63 63 63 59 61 62 62 59 59 52 49 46 43 37 37 39
15 17 9 12 26 22 25 34 25 19 20 20 24 28 28 28 32 34 42 43 44 48 53 51 53 52 58 58 61 58 54 55 58 59 58 55 52 51 47 42 45 39 37 38
Wind_Direction
167 126 202 221 202 243 172 239 252 262 264 300 278 276 270 272 271 278 280 273 278 280 295 298 298 298 298 294 286 269 258 249 240 236 235 234 234 233 232 231 230 230 230 230
50 225 231 44 140 236 251 269 272 277 264 250 273 273 278 265 257 256 269 278 276 287 296 301 303 305 308 308 296 273 258 251 247 242 237 234 233 234 234 232 228 228 228 229
210 235 196 183 168 240 211 235 265 267 303 253 299 281 233 272 253 258 261 268 278 284 291 309 313 315 314 315 301 281 263 252 247 243 236 233 231 232 230 228 227 227 227 228
229 290 205 133 209 203 264 225 256 272 348 282 4 298 177 230 262 273 269 280 288 302 314 326 321 322 321 315 304 284 260 251 244 240 237 234 235 233 234 234 231 228 227 227
250 195 165 173 219 159 241 178 240 194 205 317 244 271 106 105 223 267 290 283 320 354 351 338 332 326 313 300 304 285 263 251 246 241 236 234 234 236 238 236 233 230 228 227
243 169 181 219 218 188 102 99 58 48 96 280 188 180 295 159 240 250 317 311 331 355 1 358 347 337 328 289 284 281 263 248 243 242 240 237 235 234 234 235 235 233 230 229
222 219 221 175 232 136 144 87 311 326 42 233 81 162 251 288 280 269 280 287 299 5 7 9 360 347 336 317 284 276 259 249 249 245 244 242 241 239 238 238 238 235 233 231
213 293 180 179 196 200 184 171 176 218 253 282 98 244 269 239 285 283 282 279 300 3 5 1 2 356 351 338 325 299 275 263 253 249 249 245 243 241 240 241 241 240 239 237
208 263 186 193 184 180 180 178 241 320 271 259 267 273 299 294 303 345 318 311 344 344 343 351 349 346 2 11 2 346 323 307 291 275 261 252 251 249 245 244 246 246 246 241
258 266 190 214 166 214 179 192 216 341 243 243 232 260 267 290 291 300 303 325 337 333 345 357 354 348 347 6 0 352 344 333 315 296 283 270 261 257 255 250 248 248 246 243
224 246 267 76 204 206 189 232 216 201 202 254 266 258 262 274 296 343 352 347 8 12 12 11 12 11 6 5 359 349 340 331 323 310 295 283 275 269 264 258 254 251 249 246
219 208 237 252 249 231 189 250 243 241 249 244 264 263 296 315 313 26 41 22 11 10 5 6 5 4 6 4 0 4 1 351 326 303 297 297 290 281 276 269 262 256 251 249
13 238 259 309 311 41 141 290 278 276 280 250 263 273 306 326 13 25 20 8 9 9 5 357 357 360 1 4 4 360 360 2 357 342 314 295 289 290 286 279 270 264 257 251
237 223 258 272 268 262 273 269 270 265 263 285 269 284 288 349 359 358 7 15 2 360 1 2 359 355 355 356 354 352 352 354 353 350 347 325 307 304 303 294 277 269 261 256
330 277 272 270 290 312 300 291 287 265 268 266 287 286 340 16 354 354 360 1 3 355 352 353 351 347 344 348 348 347 346 344 344 349 349 348 324 304 299 295 287 277 268 262
133 286 335 298 293 292 282 271 259 266 279 267 263 271 35 4 340 337 338 349 345 345 342 340 344 342 341 344 340 338 339 339 338 340 342 345 353 333 300 287 286 282 275 266
243 273 271 272 287 301 280 253 252 257 261 251 259 114 193 295 323 330 323 322 338 334 331 327 335 337 334 336 335 333 331 333 335 334 334 334 340 346 342 303 285 277 274 270
252 257 255 275 305 271 255 62 72 93 85 93 97 195 220 256 296 309 17 335 327 326 323 321 329 327 324 328 328 328 330 331 331 330 325 327 329 331 337 340 310 292 280 269
215 234 257 235 219 293 297 35 74 195 179 173 204 254 256 283 297 232 321 319 320 324 312 319 320 321 322 325 328 328 328 327 328 327 324 321 322 322 323 329 334 313 289 274
37 221 222 92 221 228 190 256 282 114 258 217 206 236 228 256 310 308 320 319 313 313 310 312 315 316 316 323 327 328 329 329 327 324 321 318 318 314 314 316 323 323 304 280
3 25 209 233 241 287 235 263 79 92 244 231 264 267 233 212 244 303 311 308 305 303 306 306 308 310 314 317 319 319 320 322 322 321 319 315 314 314 312 309 305 307 306 293
183 174 222 80 32 294 196 345 150 233 300 286 292 286 241 262 291 297 300 300 302 301 304 302 304 304 305 308 310 310 310 314 314 314 314 314 312 308 308 301 297 290 289 293
276 200 189 188 217 253 270 271 292 298 291 294 287 282 268 281 286 289 294 301 301 303 304 303 303 302 302 303 304 304 307 307 308 308 310 309 307 305 302 298 288 283 277 274
245 241 255 267 262 256 267 276 279 292 286 292 295 284 277 283 287 290 298 301 304 305 303 305 303 301 301 302 301 302 303 304 304 303 302 302 301 298 297 294 287 280 273 265
235 184 214 250 261 269 267 271 278 283 289 290 287 285 289 288 292 298 300 302 302 301 302 302 299 297 298 300 299 299 300 301 300 300 299 296 294 294 293 288 287 280 274 269
231 239 232 251 262 264 273 279 286 283 287 283 287 291 296 301 301 302 300 300 299 300 302 299 297 295 296 297 296 297 297 297 298 296 293 292 291 290 287 284 282 280 275 275
Height
1510 1517 1519 1504 1510 1504 1511 1515 1514 1502 1492 1493 1483 1474 1473 1468 1466 1453 1448 1446 1439 1434 1433 1431 1431 1433 1433 1433 1433 1434 1437 1439 1442 1445 1449 1454 1458 1464 1471 1475 1481 1486 1490 1495
1516 1518 1501 1503 1508 1513 1514 1513 1506 1491 1488 1491 1482 1466 1464 1459 1451 1450 1440 1434 1434 1431 1428 1423 1424 1424 1424 1424 1424 1425 1428 1431 1433 1435 1439 1443 1450 1453 1460 1466 1471 1476 1481 1486
1504 1497 1497 1503 1506 1507 1512 1514 1499 1498 1491 1488 1481 1453 1458 1445 1440 1436 1435 1426 1430 1428 1422 1418 1419 1418 1419 1417 1417 1417 1419 1421 1424 1428 1432 1437 1442 1445 1450 1453 1460 1465 1472 1477
1503 1493 1496 1504 1503 1503 1500 1495 1495 1496 1500 1497 1484 1452 1447 1442 1437 1432 1425 1428 1425 1423 1423 1419 1416 1412 1411 1411 1409 1409 1411 1414 1415 1417 1421 1426 1429 1433 1437 1443 1451 1457 1462 1466
1494 1494 1496 1498 1495 1494 1487 1483 1490 1492 1497 1496 1490 1497 1435 1437 1437 1427 1423 1421 1422 1421 1419 1417 1414 1409 1404 1403 1403 1402 1402 1406 1410 1412 1411 1415 1419 1425 1432 1437 1443 1449 1454 1459
1491 1487 1489 1486 1483 1484 1486 1486 1493 1502 1498 1501 1479 1487 1402 1440 1431 1423 1420 1419 1423 1422 1420 1414 1409 1403 1398 1394 1396 1396 1396 1397 1403 1408 1410 1412 1414 1417 1423 1430 1435 1441 1446 1451
1487 1486 1478 1478 1483 1484 1486 1494 1508 1512 1522 1490 1473 1486 1434 1423 1423 1424 1422 1420 1421 1421 1419 1414 1406 1399 1396 1392 1389 1391 1392 1393 1398 1402 1406 1409 1411 1414 1419 1422 1426 1431 1437 1442
1488 1474 1478 1475 1473 1475 1483 1484 1501 1499 1504 1470 1488 1469 1420 1424 1421 1416 1416 1418 1418 1418 1415 1414 1411 1405 1397 1391 1387 1387 1390 1391 1394 1396 1400 1403 1408 1410 1413 1417 1419 1423 1427 1433
1485 1470 1464 1467 1465 1469 1477 1480 1471 1477 1475 1490 1457 1445 1427 1413 1415 1413 1413 1415 1419 1418 1416 1411 1411 1408 1400 1393 1390 1389 1391 1392 1394 1396 1398 1399 1401 1405 1408 1410 1415 1419 1424 1427
1469 1471 1458 1459 1462 1462 1463 1465 1473 1485 1481 1478 1455 1444 1435 1414 1403 1414 1414 1416 1418 1417 1416 1410 1408 1407 1403 1400 1398 1396 1396 1398 1398 1396 1397 1398 1399 1399 1400 1404 1409 1411 1415 1419
1473 1474 1462 1461 1462 1457 1464 1464 1465 1463 1464 1454 1449 1435 1422 1414 1411 1419 1421 1418 1422 1418 1411 1406 1405 1404 1404 1400 1397 1398 1396 1397 1398 1398 1397 1395 1396 1397 1397 1398 1400 1404 1407 1411
1471 1463 1467 1451 1451 1449 1449 1451 1453 1453 1445 1442 1434 1430 1420 1418 1416 1430 1437 1432 1427 1422 1417 1415 1409 1407 1403 1399 1398 1398 1397 1393 1394 1394 1392 1391 1391 1393 1393 1395 1394 1394 1396 1401
1467 1464 1457 1455 1449 1454 1456 1452 1452 1453 1455 1441 1440 1429 1422 1426 1433 1439 1439 1440 1434 1428 1419 1416 1412 1406 1402 1399 1397 1396 1394 1390 1390 1391 1389 1386 1384 1386 1382 1382 1386 1387 1389 1390
1470 1462 1459 1454 1451 1453 1450 1450 1452 1454 1442 1435 1435 1431 1425 1438 1442 1443 1440 1436 1439 1435 1426 1419 1415 1409 1406 1402 1397 1395 1393 1390 1386 1383 1379 1377 1375 1372 1370 1371 1374 1375 1377 1381
1463 1455 1453 1445 1450 1457 1456 1455 1451 1448 1442 1442 1430 1430 1436 1449 1450 1449 1447 1443 1439 1438 1432 1422 1418 1414 1408 1398 1397 1391 1391 1388 1386 1380 1373 1370 1363 1360 1360 1362 1363 1363 1365 1367
1462 1461 1463 1458 1451 1453 1450 1445 1440 1437 1432 1432 1430 1429 1449 1449 1450 1448 1445 1443 1441 1435 1428 1426 1419 1413 1408 1400 1394 1388 1385 1385 1380 1373 1373 1370 1360 1352 1352 1351 1350 1349 1353 1355
1467 1463 1460 1451 1451 1453 1451 1436 1433 1425 1421 1432 1430 1442 1446 1447 1445 1441 1439 1439 1435 1430 1429 1426 1415 1411 1410 1404 1400 1392 1386 1380 1376 1372 1369 1365 1357 1351 1348 1343 1339 1338 1339 1342
1460 1461 1462 1451 1462 1455 1428 1427 1429 1432 1439 1439 1441 1443 1442 1442 1442 1438 1437 1434 1431 1426 1423 1420 1413 1410 1409 1402 1396 1388 1384 1375 1370 1367 1364 1360 1353 1349 1344 1339 1333 1329 1330 1329
1450 1453 1460 1463 1476 1438 1425 1432 1435 1433 1438 1440 1439 1437 1436 1436 1435 1433 1432 1429 1424 1419 1416 1411 1408 1404 1400 1396 1388 1380 1375 1371 1366 1361 1356 1353 1349 1345 1341 1335 1329 1324 1322 1322
1442 1445 1449 1476 1458 1471 1433 1433 1431 1433 1440 1435 1434 1433 1433 1433 1432 1423 1423 1420 1417 1414 1411 1406 1403 1399 1396 1390 1383 1376 1372 1368 1362 1357 1355 1352 1346 1341 1336 1329 1324 1322 1318 1316
1470 1475 1462 1467 1478 1453 1435 1430 1429 1453 1442 1428 1429 1428 1428 1428 1422 1418 1414 1413 1411 1408 1403 1400 1395 1390 1385 1381 1376 1371 1366 1362 1357 1351 1346 1343 1336 1331 1325 1320 1318 1318 1314 1308
1450 1469 1480 1490 1486 1464 1427 1428 1436 1429 1423 1423 1423 1421 1419 1416 1414 1412 1409 1405 1403 1399 1395 1392 1387 1381 1377 1373 1368 1363 1359 1355 1348 1343 1337 1331 1326 1320 1318 1316 1313 1310 1308 1303
1454 1443 1458 1453 1444 1427 1426 1424 1421 1420 1419 1416 1415 1413 1412 1410 1407 1405 1401 1397 1394 1390 1386 1382 1377 1371 1366 1363 1358 1350 1346 1341 1336 1330 1321 1319 1315 1310 1309 1307 1304 1301 1298 1296
1436 1435 1435 1434 1422 1422 1419 1417 1416 1414 1412 1409 1407 1406 1405 1402 1400 1397 1393 1389 1384 1380 1375 1371 1365 1358 1351 1349 1343 1337 1331 1325 1319 1314 1310 1306 1302 1299 1298 1294 1292 1288 1287 1287
1428 1428 1428 1422 1415 1416 1412 1409 1409 1407 1406 1404 1402 1400 1398 1397 1393 1391 1385 1380 1375 1369 1362 1359 1352 1345 1336 1332 1325 1322 1317 1312 1304 1299 1294 1290 1287 1285 1283 1280 1276 1274 1274 1277
1417 1414 1419 1412 1406 1407 1404 1401 1401 1400 1399 1397 1396 1393 1392 1389 1385 1383 1375 1371 1366 1358 1351 1345 1338 1332 1323 1317 1308 1305 1302 1298 1291 1283 1279 1275 1272 1269 1268 1266 1261 1261 1264 1265